QPF
0.00 0.00 0.00 0.00 0.00 0.00 0.00 0.00 0.00 0.00 0.00 0.00 0.00 0.00 0.00 0.00 0.00 0.00 0.00 0.00 0.00 0.00 0.00 0.00 0.00 0.00 0.00 0.00 0.00 0.00 0.00 0.00 0.00 0.00 0.00 0.00 0.00 0.00 0.00 0.00 0.04 0.06 0.00
0.00 0.00 0.00 0.00 0.00 0.00 0.00 0.00 0.00 0.00 0.00 0.00 0.00 0.00 0.00 0.00 0.00 0.00 0.00 0.00 0.00 0.00 0.00 0.00 0.00 0.00 0.00 0.00 0.00 0.00 0.00 0.00 0.00 0.00 0.00 0.00 0.00 0.00 0.00 0.00 0.04 0.03 0.00
0.00 0.00 0.00 0.00 0.00 0.00 0.00 0.00 0.00 0.00 0.00 0.00 0.00 0.00 0.00 0.00 0.00 0.00 0.00 0.00 0.00 0.00 0.00 0.00 0.00 0.00 0.00 0.00 0.00 0.00 0.00 0.00 0.00 0.00 0.00 0.01 0.00 0.00 0.00 0.00 0.00 0.00 0.00
0.00 0.00 0.00 0.00 0.00 0.00 0.00 0.00 0.00 0.00 0.00 0.00 0.00 0.00 0.00 0.00 0.00 0.00 0.00 0.00 0.00 0.00 0.00 0.00 0.00 0.00 0.00 0.00 0.00 0.00 0.00 0.00 0.00 0.00 0.01 0.07 0.01 0.00 0.00 0.00 0.00 0.00 0.00
0.00 0.00 0.00 0.00 0.00 0.00 0.00 0.00 0.00 0.00 0.00 0.00 0.00 0.00 0.00 0.00 0.00 0.00 0.00 0.00 0.00 0.00 0.00 0.00 0.00 0.00 0.00 0.00 0.00 0.00 0.00 0.00 0.00 0.00 0.01 0.03 0.03 0.01 0.00 0.00 0.00 0.00 0.00
0.00 0.00 0.00 0.00 0.00 0.00 0.00 0.00 0.00 0.00 0.00 0.00 0.00 0.00 0.00 0.00 0.00 0.00 0.00 0.00 0.00 0.00 0.00 0.00 0.00 0.00 0.00 0.00 0.00 0.00 0.00 0.00 0.00 0.00 0.00 0.00 0.05 0.05 0.01 0.01 0.00 0.00 0.00
0.00 0.00 0.00 0.00 0.00 0.00 0.00 0.00 0.00 0.00 0.00 0.00 0.00 0.00 0.00 0.00 0.00 0.00 0.00 0.00 0.00 0.00 0.00 0.00 0.00 0.00 0.00 0.00 0.00 0.00 0.00 0.00 0.00 0.01 0.00 0.01 0.04 0.04 0.04 0.02 0.02 0.01 0.00
0.00 0.00 0.00 0.00 0.00 0.00 0.00 0.00 0.00 0.00 0.00 0.00 0.00 0.00 0.00 0.00 0.00 0.00 0.00 0.00 0.00 0.00 0.00 0.00 0.00 0.00 0.00 0.00 0.00 0.00 0.00 0.00 0.01 0.01 0.01 0.02 0.04 0.03 0.05 0.03 0.03 0.04 0.04
0.00 0.00 0.00 0.00 0.00 0.00 0.00 0.00 0.00 0.00 0.00 0.00 0.00 0.00 0.00 0.00 0.00 0.00 0.00 0.00 0.00 0.00 0.00 0.00 0.00 0.00 0.00 0.00 0.00 0.00 0.00 0.00 0.00 0.01 0.01 0.02 0.04 0.03 0.06 0.03 0.02 0.04 0.06
0.00 0.00 0.00 0.00 0.00 0.00 0.00 0.00 0.00 0.00 0.00 0.00 0.00 0.00 0.00 0.00 0.00 0.00 0.00 0.00 0.00 0.00 0.00 0.00 0.00 0.00 0.01 0.01 0.00 0.00 0.01 0.00 0.00 0.00 0.00 0.01 0.01 0.03 0.05 0.02 0.02 0.03 0.04
0.00 0.00 0.00 0.00 0.00 0.00 0.00 0.00 0.00 0.00 0.00 0.00 0.00 0.00 0.00 0.00 0.01 0.02 0.02 0.02 0.01 0.01 0.01 0.00 0.00 0.01 0.01 0.00 0.01 0.03 0.03 0.00 0.00 0.00 0.00 0.01 0.01 0.03 0.03 0.03 0.02 0.02 0.03
0.00 0.00 0.00 0.00 0.00 0.00 0.00 0.00 0.00 0.00 0.01 0.01 0.01 0.03 0.03 0.05 0.04 0.03 0.08 0.08 0.04 0.03 0.02 0.01 0.02 0.02 0.01 0.00 0.05 0.16 0.04 0.00 0.00 0.00 0.00 0.01 0.02 0.03 0.02 0.02 0.02 0.02 0.02
0.00 0.00 0.00 0.00 0.00 0.00 0.00 0.00 0.00 0.02 0.07 0.09 0.10 0.14 0.15 0.17 0.11 0.06 0.09 0.12 0.12 0.07 0.03 0.03 0.04 0.03 0.02 0.04 0.05 0.10 0.04 0.02 0.02 0.03 0.04 0.05 0.06 0.06 0.04 0.03 0.03 0.04 0.04
0.00 0.00 0.00 0.00 0.00 0.00 0.00 0.01 0.01 0.03 0.06 0.08 0.07 0.09 0.16 0.14 0.12 0.09 0.09 0.08 0.12 0.11 0.11 0.07 0.05 0.05 0.05 0.04 0.04 0.03 0.02 0.02 0.02 0.04 0.07 0.10 0.09 0.09 0.07 0.05 0.04 0.05 0.06
0.00 0.00 0.00 0.00 0.00 0.00 0.01 0.02 0.03 0.03 0.05 0.05 0.08 0.11 0.14 0.15 0.14 0.13 0.10 0.09 0.04 0.06 0.10 0.13 0.06 0.06 0.07 0.04 0.04 0.03 0.02 0.02 0.03 0.04 0.06 0.11 0.09 0.07 0.06 0.05 0.04 0.04 0.05
0.00 0.00 0.00 0.00 0.00 0.01 0.02 0.04 0.06 0.06 0.06 0.08 0.12 0.11 0.18 0.20 0.18 0.14 0.13 0.13 0.09 0.10 0.12 0.13 0.10 0.11 0.08 0.08 0.06 0.04 0.03 0.03 0.03 0.05 0.04 0.05 0.08 0.05 0.04 0.04 0.04 0.03 0.03
0.00 0.00 0.00 0.00 0.01 0.03 0.06 0.08 0.11 0.08 0.10 0.13 0.15 0.13 0.15 0.18 0.24 0.23 0.21 0.20 0.21 0.21 0.19 0.16 0.14 0.17 0.11 0.09 0.07 0.07 0.07 0.08 0.06 0.05 0.03 0.02 0.02 0.03 0.02 0.02 0.03 0.03 0.03
0.00 0.00 0.00 0.00 0.02 0.09 0.10 0.09 0.08 0.07 0.10 0.10 0.10 0.09 0.09 0.14 0.19 0.23 0.21 0.23 0.24 0.23 0.24 0.25 0.24 0.25 0.23 0.21 0.18 0.14 0.12 0.09 0.04 0.03 0.02 0.01 0.01 0.00 0.01 0.03 0.03 0.04 0.03
0.00 0.01 0.01 0.02 0.05 0.07 0.07 0.05 0.03 0.04 0.05 0.05 0.05 0.05 0.05 0.05 0.07 0.09 0.09 0.11 0.10 0.11 0.13 0.13 0.21 0.20 0.17 0.21 0.18 0.15 0.11 0.07 0.04 0.02 0.01 0.01 0.01 0.01 0.00 0.02 0.02 0.02 0.03
0.03 0.04 0.04 0.04 0.04 0.04 0.02 0.01 0.01 0.01 0.01 0.01 0.01 0.01 0.01 0.01 0.01 0.01 0.01 0.01 0.01 0.02 0.02 0.03 0.05 0.07 0.07 0.08 0.06 0.08 0.08 0.04 0.03 0.02 0.01 0.01 0.02 0.02 0.01 0.00 0.01 0.02 0.03
0.16 0.13 0.07 0.05 0.04 0.03 0.02 0.01 0.00 0.00 0.00 0.00 0.00 0.00 0.00 0.00 0.00 0.00 0.00 0.00 0.00 0.00 0.00 0.00 0.01 0.01 0.02 0.03 0.03 0.02 0.01 0.01 0.01 0.01 0.01 0.01 0.01 0.01 0.01 0.00 0.01 0.01 0.02
0.31 0.24 0.12 0.05 0.03 0.02 0.01 0.01 0.00 0.00 0.00 0.00 0.00 0.00 0.00 0.00 0.00 0.00 0.00 0.00 0.00 0.00 0.00 0.00 0.01 0.01 0.00 0.01 0.01 0.01 0.01 0.00 0.00 0.00 0.00 0.00 0.00 0.00 0.01 0.01 0.01 0.02 0.02
0.48 0.30 0.13 0.05 0.02 0.01 0.01 0.00 0.00 0.00 0.00 0.00 0.00 0.00 0.00 0.00 0.00 0.00 0.00 0.00 0.00 0.00 0.00 0.00 0.00 0.01 0.01 0.01 0.01 0.02 0.01 0.00 0.00 0.00 0.00 0.00 0.00 0.01 0.00 0.00 0.01 0.01 0.02
0.58 0.25 0.11 0.05 0.02 0.01 0.01 0.01 0.01 0.00 0.00 0.00 0.00 0.00 0.00 0.00 0.00 0.00 0.00 0.00 0.00 0.00 0.00 0.00 0.01 0.01 0.02 0.01 0.01 0.03 0.03 0.03 0.03 0.01 0.01 0.00 0.01 0.01 0.01 0.01 0.01 0.01 0.01
0.48 0.26 0.17 0.09 0.06 0.06 0.04 0.03 0.02 0.01 0.00 0.00 0.00 0.00 0.00 0.00 0.00 0.00 0.00 0.00 0.00 0.00 0.00 0.01 0.01 0.01 0.02 0.03 0.03 0.03 0.04 0.06 0.06 0.04 0.02 0.02 0.04 0.04 0.03 0.03 0.02 0.03 0.04
0.26 0.19 0.14 0.11 0.14 0.12 0.07 0.05 0.05 0.04 0.03 0.02 0.01 0.00 0.00 0.00 0.00 0.00 0.00 0.00 0.00 0.00 0.01 0.01 0.01 0.02 0.04 0.04 0.05 0.05 0.05 0.06 0.08 0.09 0.08 0.06 0.07 0.05 0.06 0.07 0.08 0.08 0.09
MSLP
1007.60 1007.70 1007.99 1008.48 1009.09 1009.75 1010.37 1010.86 1011.22 1011.45 1011.60 1011.73 1011.91 1012.16 1012.50 1012.88 1013.27 1013.62 1013.88 1014.06 1014.16 1014.21 1014.25 1014.31 1014.41 1014.55 1014.71 1014.87 1015.01 1015.12 1015.19 1015.23 1015.26 1015.30 1015.36 1015.46 1015.58 1015.72 1015.87 1016.01 1016.15 1016.28 1016.41
1007.30 1007.57 1008.02 1008.64 1009.33 1010.02 1010.61 1011.05 1011.33 1011.49 1011.59 1011.71 1011.91 1012.22 1012.61 1013.05 1013.48 1013.85 1014.12 1014.28 1014.36 1014.39 1014.42 1014.47 1014.58 1014.73 1014.89 1015.05 1015.17 1015.25 1015.29 1015.30 1015.31 1015.35 1015.42 1015.54 1015.69 1015.86 1016.04 1016.20 1016.35 1016.49 1016.61
1007.07 1007.51 1008.11 1008.85 1009.62 1010.33 1010.89 1011.28 1011.49 1011.60 1011.67 1011.78 1012.00 1012.33 1012.74 1013.20 1013.63 1013.98 1014.22 1014.34 1014.39 1014.41 1014.45 1014.53 1014.66 1014.84 1015.03 1015.18 1015.29 1015.34 1015.34 1015.32 1015.31 1015.33 1015.42 1015.55 1015.73 1015.94 1016.14 1016.33 1016.50 1016.66 1016.79
1006.90 1007.49 1008.24 1009.08 1009.91 1010.64 1011.18 1011.53 1011.70 1011.78 1011.83 1011.94 1012.17 1012.50 1012.92 1013.35 1013.74 1014.04 1014.21 1014.29 1014.31 1014.33 1014.39 1014.52 1014.70 1014.92 1015.14 1015.31 1015.40 1015.42 1015.38 1015.32 1015.27 1015.28 1015.36 1015.51 1015.71 1015.94 1016.18 1016.40 1016.60 1016.77 1016.93
1006.77 1007.49 1008.35 1009.27 1010.15 1010.89 1011.43 1011.76 1011.91 1011.98 1012.04 1012.16 1012.40 1012.73 1013.13 1013.51 1013.84 1014.05 1014.16 1014.18 1014.18 1014.20 1014.30 1014.48 1014.73 1015.00 1015.25 1015.43 1015.51 1015.49 1015.40 1015.29 1015.21 1015.19 1015.26 1015.41 1015.63 1015.88 1016.14 1016.38 1016.61 1016.81 1017.01
1006.64 1007.45 1008.39 1009.37 1010.28 1011.03 1011.57 1011.90 1012.06 1012.14 1012.23 1012.38 1012.63 1012.96 1013.33 1013.66 1013.91 1014.05 1014.08 1014.06 1014.03 1014.07 1014.21 1014.44 1014.75 1015.07 1015.35 1015.53 1015.59 1015.54 1015.40 1015.24 1015.12 1015.07 1015.12 1015.26 1015.48 1015.74 1016.01 1016.28 1016.52 1016.76 1016.98
1006.50 1007.34 1008.32 1009.33 1010.25 1011.01 1011.56 1011.90 1012.09 1012.21 1012.33 1012.52 1012.80 1013.13 1013.47 1013.75 1013.94 1014.01 1013.99 1013.93 1013.89 1013.95 1014.12 1014.40 1014.75 1015.11 1015.41 1015.58 1015.62 1015.52 1015.34 1015.14 1014.97 1014.89 1014.92 1015.05 1015.26 1015.51 1015.79 1016.06 1016.32 1016.58 1016.84
1006.34 1007.17 1008.15 1009.15 1010.07 1010.83 1011.38 1011.73 1011.95 1012.11 1012.28 1012.51 1012.82 1013.16 1013.49 1013.74 1013.89 1013.92 1013.86 1013.78 1013.74 1013.81 1014.00 1014.31 1014.69 1015.06 1015.35 1015.51 1015.52 1015.39 1015.17 1014.93 1014.74 1014.63 1014.64 1014.76 1014.96 1015.20 1015.47 1015.74 1016.01 1016.28 1016.56
1006.19 1006.98 1007.91 1008.88 1009.77 1010.50 1011.05 1011.41 1011.65 1011.84 1012.05 1012.32 1012.65 1013.01 1013.34 1013.59 1013.72 1013.73 1013.66 1013.58 1013.54 1013.61 1013.82 1014.13 1014.50 1014.86 1015.13 1015.27 1015.25 1015.09 1014.85 1014.59 1014.39 1014.27 1014.28 1014.39 1014.58 1014.82 1015.08 1015.34 1015.60 1015.88 1016.17
1006.09 1006.81 1007.67 1008.57 1009.41 1010.10 1010.62 1010.97 1011.22 1011.43 1011.66 1011.95 1012.30 1012.67 1013.01 1013.27 1013.40 1013.42 1013.36 1013.29 1013.26 1013.33 1013.53 1013.82 1014.17 1014.49 1014.73 1014.83 1014.79 1014.62 1014.37 1014.12 1013.92 1013.82 1013.83 1013.95 1014.14 1014.38 1014.63 1014.89 1015.14 1015.41 1015.70
1006.05 1006.68 1007.46 1008.28 1009.05 1009.69 1010.16 1010.49 1010.72 1010.92 1011.16 1011.46 1011.81 1012.19 1012.54 1012.81 1012.97 1013.01 1012.97 1012.91 1012.88 1012.95 1013.12 1013.38 1013.68 1013.96 1014.16 1014.23 1014.17 1014.00 1013.77 1013.55 1013.37 1013.30 1013.33 1013.47 1013.67 1013.91 1014.17 1014.42 1014.67 1014.93 1015.21
1006.05 1006.59 1007.29 1008.03 1008.72 1009.30 1009.72 1010.01 1010.22 1010.40 1010.62 1010.90 1011.25 1011.63 1011.99 1012.27 1012.45 1012.52 1012.50 1012.46 1012.44 1012.49 1012.63 1012.84 1013.09 1013.31 1013.47 1013.52 1013.46 1013.30 1013.11 1012.92 1012.78 1012.75 1012.81 1012.97 1013.19 1013.44 1013.70 1013.96 1014.21 1014.46 1014.72
1006.01 1006.49 1007.11 1007.78 1008.41 1008.93 1009.31 1009.57 1009.75 1009.91 1010.11 1010.37 1010.70 1011.07 1011.42 1011.71 1011.91 1012.01 1012.02 1012.00 1011.98 1012.01 1012.11 1012.27 1012.46 1012.64 1012.76 1012.80 1012.74 1012.61 1012.45 1012.30 1012.21 1012.20 1012.29 1012.46 1012.70 1012.97 1013.25 1013.52 1013.77 1014.02 1014.27
1005.86 1006.30 1006.87 1007.49 1008.08 1008.56 1008.92 1009.16 1009.33 1009.48 1009.66 1009.90 1010.21 1010.56 1010.91 1011.21 1011.42 1011.54 1011.58 1011.57 1011.55 1011.57 1011.63 1011.75 1011.89 1012.03 1012.12 1012.15 1012.10 1011.99 1011.86 1011.74 1011.67 1011.68 1011.78 1011.96 1012.20 1012.48 1012.77 1013.06 1013.33 1013.59 1013.84
1005.52 1005.94 1006.49 1007.09 1007.67 1008.15 1008.52 1008.77 1008.95 1009.11 1009.29 1009.53 1009.82 1010.16 1010.49 1010.79 1011.02 1011.16 1011.22 1011.23 1011.21 1011.22 1011.25 1011.33 1011.43 1011.54 1011.61 1011.63 1011.59 1011.50 1011.39 1011.28 1011.20 1011.20 1011.28 1011.43 1011.65 1011.93 1012.23 1012.53 1012.84 1013.12 1013.38
1004.96 1005.39 1005.95 1006.56 1007.14 1007.65 1008.06 1008.36 1008.59 1008.79 1008.99 1009.24 1009.53 1009.85 1010.19 1010.49 1010.72 1010.88 1010.96 1010.99 1010.98 1010.98 1011.00 1011.06 1011.13 1011.21 1011.26 1011.28 1011.24 1011.15 1011.02 1010.90 1010.79 1010.74 1010.75 1010.85 1011.03 1011.28 1011.57 1011.89 1012.23 1012.55 1012.84
1004.27 1004.72 1005.29 1005.91 1006.53 1007.09 1007.55 1007.93 1008.22 1008.48 1008.72 1008.99 1009.29 1009.62 1009.95 1010.25 1010.50 1010.68 1010.79 1010.84 1010.85 1010.86 1010.87 1010.91 1010.96 1011.02 1011.06 1011.06 1011.01 1010.90 1010.75 1010.57 1010.40 1010.27 1010.20 1010.21 1010.31 1010.51 1010.77 1011.10 1011.46 1011.82 1012.16
1003.59 1004.06 1004.63 1005.27 1005.91 1006.51 1007.04 1007.48 1007.85 1008.17 1008.46 1008.76 1009.08 1009.41 1009.74 1010.05 1010.31 1010.52 1010.66 1010.74 1010.78 1010.80 1010.82 1010.85 1010.89 1010.93 1010.95 1010.93 1010.86 1010.72 1010.52 1010.28 1010.03 1009.79 1009.61 1009.51 1009.51 1009.63 1009.85 1010.16 1010.53 1010.93 1011.32
1003.13 1003.59 1004.14 1004.76 1005.40 1006.02 1006.58 1007.07 1007.50 1007.87 1008.21 1008.53 1008.86 1009.19 1009.52 1009.83 1010.11 1010.34 1010.52 1010.64 1010.71 1010.76 1010.80 1010.83 1010.87 1010.89 1010.89 1010.84 1010.74 1010.56 1010.31 1010.01 1009.66 1009.32 1009.02 1008.79 1008.68 1008.70 1008.85 1009.12 1009.48 1009.90 1010.33
1003.06 1003.48 1003.98 1004.54 1005.13 1005.71 1006.27 1006.77 1007.22 1007.61 1007.96 1008.29 1008.61 1008.93 1009.25 1009.57 1009.86 1010.12 1010.34 1010.50 1010.62 1010.71 1010.76 1010.80 1010.83 1010.84 1010.82 1010.75 1010.62 1010.41 1010.12 1009.76 1009.34 1008.90 1008.49 1008.15 1007.92 1007.82 1007.88 1008.08 1008.41 1008.82 1009.28
1003.51 1003.84 1004.23 1004.69 1005.18 1005.69 1006.19 1006.65 1007.07 1007.44 1007.77 1008.08 1008.37 1008.66 1008.96 1009.26 1009.57 1009.85 1010.10 1010.32 1010.48 1010.60 1010.69 1010.74 1010.76 1010.76 1010.73 1010.64 1010.50 1010.27 1009.96 1009.56 1009.10 1008.60 1008.10 1007.66 1007.31 1007.10 1007.06 1007.17 1007.43 1007.81 1008.26
1004.46 1004.67 1004.93 1005.23 1005.59 1005.97 1006.37 1006.75 1007.10 1007.41 1007.68 1007.92 1008.15 1008.39 1008.65 1008.94 1009.24 1009.54 1009.83 1010.08 1010.29 1010.45 1010.56 1010.62 1010.65 1010.64 1010.60 1010.51 1010.36 1010.14 1009.84 1009.45 1008.97 1008.45 1007.90 1007.39 1006.95 1006.64 1006.49 1006.50 1006.67 1006.99 1007.40
1005.78 1005.86 1005.96 1006.10 1006.30 1006.53 1006.80 1007.06 1007.31 1007.52 1007.70 1007.86 1008.02 1008.19 1008.39 1008.63 1008.91 1009.22 1009.53 1009.81 1010.06 1010.25 1010.38 1010.46 1010.49 1010.48 1010.44 1010.36 1010.23 1010.04 1009.77 1009.41 1008.98 1008.47 1007.92 1007.37 1006.88 1006.49 1006.23 1006.14 1006.22 1006.45 1006.80
1007.25 1007.20 1007.15 1007.14 1007.18 1007.27 1007.40 1007.55 1007.68 1007.79 1007.87 1007.93 1007.99 1008.08 1008.20 1008.39 1008.63 1008.92 1009.23 1009.53 1009.80 1010.01 1010.16 1010.24 1010.28 1010.27 1010.24 1010.18 1010.08 1009.94 1009.73 1009.44 1009.07 1008.61 1008.10 1007.57 1007.06 1006.61 1006.28 1006.10 1006.08 1006.23 1006.51
1008.61 1008.46 1008.30 1008.17 1008.09 1008.07 1008.09 1008.14 1008.17 1008.19 1008.17 1008.13 1008.09 1008.08 1008.12 1008.23 1008.42 1008.67 1008.96 1009.25 1009.52 1009.73 1009.89 1009.98 1010.02 1010.01 1009.99 1009.95 1009.89 1009.80 1009.66 1009.46 1009.17 1008.80 1008.35 1007.86 1007.37 1006.91 1006.55 1006.31 1006.22 1006.30 1006.52
1009.67 1009.46 1009.23 1009.04 1008.90 1008.81 1008.77 1008.75 1008.72 1008.66 1008.57 1008.44 1008.30 1008.20 1008.15 1008.17 1008.28 1008.47 1008.71 1008.97 1009.22 1009.42 1009.57 1009.65 1009.68 1009.68 1009.66 1009.64 1009.62 1009.58 1009.51 1009.39 1009.19 1008.91 1008.55 1008.13 1007.69 1007.26 1006.90 1006.65 1006.53 1006.57 1006.75
Thickness
5855 5847 5839 5834 5830 5828 5825 5823 5819 5815 5811 5807 5803 5800 5797 5794 5791 5788 5786 5784 5781 5779 5776 5774 5772 5769 5767 5765 5762 5760 5759 5758 5756 5755 5754 5753 5752 5751 5750 5749 5749 5748 5746
5856 5846 5838 5834 5830 5827 5824 5821 5818 5815 5811 5806 5803 5799 5796 5793 5790 5787 5785 5782 5780 5778 5776 5773 5771 5769 5767 5764 5762 5760 5758 5756 5756 5755 5754 5753 5751 5750 5749 5749 5750 5748 5746
5854 5845 5837 5833 5829 5825 5822 5819 5816 5813 5809 5805 5802 5798 5795 5792 5789 5787 5784 5781 5779 5777 5774 5772 5770 5768 5766 5764 5762 5760 5758 5756 5755 5754 5754 5754 5752 5750 5748 5747 5747 5746 5745
5853 5844 5838 5832 5828 5824 5821 5817 5814 5811 5807 5804 5800 5797 5794 5791 5789 5786 5783 5781 5778 5776 5773 5771 5769 5767 5765 5763 5761 5759 5758 5757 5756 5755 5755 5755 5753 5751 5748 5746 5745 5744 5743
5852 5844 5836 5831 5826 5822 5819 5815 5812 5809 5805 5802 5799 5796 5793 5791 5788 5786 5783 5781 5778 5775 5773 5771 5768 5766 5764 5763 5761 5759 5758 5757 5756 5756 5758 5758 5755 5752 5749 5746 5744 5743 5742
5850 5842 5834 5829 5825 5821 5817 5814 5810 5807 5804 5801 5798 5795 5792 5790 5788 5786 5783 5780 5778 5775 5773 5771 5768 5766 5764 5762 5761 5759 5758 5757 5757 5759 5761 5760 5756 5753 5750 5747 5745 5743 5742
5850 5841 5832 5827 5823 5819 5815 5811 5808 5805 5802 5799 5796 5793 5791 5789 5787 5785 5782 5780 5778 5775 5773 5771 5769 5767 5765 5763 5761 5760 5758 5757 5757 5759 5762 5761 5758 5755 5752 5749 5746 5744 5743
5852 5841 5831 5825 5821 5817 5813 5809 5806 5802 5799 5796 5794 5792 5789 5787 5785 5783 5781 5779 5777 5775 5773 5771 5769 5767 5765 5763 5762 5760 5759 5758 5759 5761 5763 5763 5760 5757 5754 5751 5747 5745 5743
5855 5842 5832 5826 5820 5816 5812 5808 5804 5801 5797 5795 5792 5790 5787 5785 5783 5782 5780 5777 5775 5773 5771 5770 5768 5766 5764 5763 5762 5760 5759 5758 5758 5760 5763 5764 5761 5759 5756 5753 5750 5747 5745
5855 5843 5835 5829 5822 5816 5811 5806 5802 5799 5795 5792 5790 5787 5785 5783 5782 5780 5778 5776 5773 5771 5770 5768 5766 5765 5763 5762 5761 5760 5759 5757 5758 5760 5763 5765 5763 5761 5758 5755 5752 5750 5748
5853 5845 5838 5831 5823 5817 5812 5807 5801 5797 5793 5790 5787 5785 5783 5782 5781 5780 5778 5776 5773 5771 5769 5767 5765 5764 5762 5761 5761 5760 5759 5758 5759 5762 5766 5767 5765 5762 5759 5757 5754 5752 5750
5846 5844 5841 5835 5826 5820 5816 5809 5801 5797 5793 5789 5787 5784 5781 5780 5780 5781 5780 5776 5773 5770 5768 5766 5764 5762 5761 5761 5762 5761 5759 5759 5760 5763 5767 5768 5766 5762 5760 5758 5756 5753 5752
5845 5843 5842 5836 5826 5821 5817 5810 5804 5800 5797 5790 5786 5784 5781 5778 5777 5777 5777 5775 5770 5767 5765 5765 5762 5760 5760 5761 5761 5762 5760 5760 5762 5763 5765 5765 5762 5760 5758 5756 5755 5754 5752
5841 5839 5840 5834 5825 5819 5815 5810 5805 5801 5797 5793 5787 5783 5780 5775 5773 5772 5772 5771 5767 5765 5764 5763 5762 5762 5760 5760 5760 5760 5759 5759 5760 5761 5763 5761 5758 5757 5756 5755 5754 5753 5752
5837 5835 5835 5830 5822 5815 5809 5804 5802 5797 5794 5791 5786 5781 5777 5772 5768 5766 5765 5764 5763 5763 5762 5760 5760 5760 5757 5757 5756 5756 5755 5755 5757 5757 5758 5757 5756 5755 5754 5754 5753 5753 5752
5834 5831 5830 5824 5817 5810 5802 5797 5793 5791 5788 5785 5781 5777 5773 5768 5764 5761 5760 5758 5758 5757 5756 5755 5754 5753 5752 5750 5750 5750 5750 5751 5752 5753 5754 5753 5754 5753 5753 5753 5752 5751 5751
5832 5829 5824 5818 5813 5805 5799 5793 5789 5786 5783 5779 5775 5771 5768 5764 5760 5757 5754 5753 5753 5752 5751 5750 5749 5748 5746 5745 5745 5745 5746 5746 5748 5750 5750 5750 5751 5751 5751 5750 5751 5750 5749
5830 5825 5819 5815 5809 5800 5794 5789 5786 5783 5779 5774 5771 5767 5764 5759 5756 5753 5751 5750 5750 5749 5748 5746 5745 5742 5741 5739 5740 5741 5743 5744 5746 5748 5748 5749 5749 5749 5750 5750 5750 5749 5748
5825 5819 5812 5808 5801 5794 5789 5785 5782 5778 5773 5770 5767 5764 5760 5757 5754 5751 5749 5748 5748 5747 5746 5744 5744 5740 5736 5735 5736 5738 5740 5741 5744 5746 5748 5748 5748 5749 5749 5750 5750 5749 5748
5815 5811 5805 5800 5794 5788 5784 5779 5777 5773 5770 5767 5765 5761 5757 5753 5751 5748 5746 5745 5744 5742 5741 5740 5738 5737 5735 5734 5734 5737 5738 5740 5742 5744 5745 5747 5748 5749 5749 5750 5750 5749 5748
5801 5795 5792 5788 5785 5781 5776 5771 5767 5764 5763 5762 5761 5757 5753 5749 5746 5743 5741 5740 5739 5737 5737 5736 5734 5731 5730 5731 5729 5729 5734 5738 5740 5742 5744 5745 5747 5749 5750 5750 5750 5750 5749
5784 5779 5777 5775 5774 5772 5770 5766 5762 5759 5758 5757 5755 5752 5749 5745 5742 5741 5738 5735 5735 5733 5732 5731 5729 5726 5725 5725 5720 5717 5717 5723 5731 5740 5743 5744 5746 5748 5748 5749 5749 5749 5748
5757 5760 5759 5763 5763 5763 5762 5760 5757 5753 5749 5748 5746 5745 5744 5742 5739 5736 5734 5732 5730 5729 5727 5727 5725 5722 5718 5719 5717 5711 5707 5709 5716 5727 5734 5738 5742 5744 5745 5746 5746 5748 5747
5733 5741 5746 5751 5752 5752 5752 5749 5746 5742 5739 5740 5740 5741 5740 5738 5736 5734 5731 5729 5727 5725 5724 5723 5724 5720 5716 5712 5713 5712 5709 5707 5701 5706 5716 5725 5731 5735 5739 5742 5742 5743 5744
5723 5725 5731 5735 5738 5739 5739 5738 5736 5734 5734 5736 5736 5735 5733 5734 5733 5731 5729 5726 5723 5721 5720 5719 5717 5716 5713 5710 5708 5706 5704 5703 5701 5695 5698 5707 5715 5724 5731 5735 5735 5734 5735
5720 5717 5717 5720 5723 5724 5726 5727 5726 5724 5724 5724 5724 5724 5725 5727 5728 5729 5727 5723 5720 5717 5716 5715 5714 5713 5711 5709 5706 5703 5699 5696 5694 5693 5692 5695 5698 5709 5718 5725 5726 5725 5726